Flag for U.S.A. Weather past 2 weeks in Petersburg, Indiana, U.S.A.

Now
58 °F

Overcast.


Feels Like: 56 °F
Forecast: 54 / 69 °F
Wind: 9 mph from North

Location: Lawrenceville-Vincennes International Airport

Current Time: Sep 16, 2014 at 6:12:23 AM

Latest Report: Sep 16, 2014 at 4:53 AM


Visibility: 10 mi

Pressure: 30.14 "Hg

Humidity: 93%

Dew point: 56 °F

Location of PetersburgLocation

Historic Weather in Petersburg — Graph

°F

Petersburg temperature yesterday

Maximum temperature yesterday: 71 °F (at 5:53 PM)
Minimum temperature yesterday: 47 °F (at 4:53 AM)
Average temperature yesterday: 59 °F

Past Weeks' High & Low Weather Summary

 TemperatureHumidityPressure
High92 °F (Sep 5, 2:53 PM)100% (Sep 2, 4:58 AM)30.36 "Hg (Sep 2, 4:58 AM)
Low45 °F (Sep 14, 4:53 AM)37% (Sep 8, 5:53 PM)29.70 "Hg (Sep 10, 8:53 PM)
Average68 °F81%30.07 "Hg
* Reported Sep 1 4:53 AM — Sep 16 4:53 AM, Petersburg, Weather by CustomWeather, © 2014

Note: Actual official high and low records may vary slightly from our data, if they occured in-between our weather recording intervals... More about our weather records

Advertising

Petersburg weather history for previous 24 hours

 ConditionsComfort  
Time TempWeatherWind HumidityBarometerVisibility
4:53 AM
Sep 16
58 °FOvercast.9 mph93%30.14 "Hg10 mi
3:53 AM59 °FOvercast.10 mph93%30.13 "Hg10 mi
3:00 AM60 °FOvercast.9 mph93%30.13 "Hg7 mi
1:53 AM60 °FFog.8 mph96%30.11 "Hg4 mi
12:53 AM61 °FFog.8 mph97%30.10 "Hg3 mi
11:53 PM
Sep 15
61 °FFog.9 mph97%30.10 "Hg3 mi
10:59 PM62 °FLight rain. Fog.6 mph96%30.09 "Hg2 mi
9:53 PM63 °FLight rain. Fog.No wind93%30.08 "Hg5 mi
8:53 PM64 °FLight rain. Mostly cloudy.6 mph87%30.05 "Hg8 mi
7:53 PM66 °FOvercast.6 mph78%30.05 "Hg10 mi
6:53 PM67 °FOvercast.7 mph73%30.08 "Hg10 mi
5:53 PM71 °FScattered clouds.12 mph61%30.03 "Hg10 mi
4:53 PM68 °FPartly sunny.21 mph65%30.05 "Hg10 mi
3:53 PM69 °FMostly cloudy.13 mph63%30.10 "Hg10 mi
2:53 PM70 °FOvercast.6 mph59%30.12 "Hg10 mi
1:53 PM69 °FOvercast.No wind59%30.15 "Hg10 mi
12:53 PM68 °FOvercast.5 mph63%30.15 "Hg10 mi
11:53 AM67 °FOvercast.7 mph66%30.16 "Hg10 mi
10:53 AM62 °FOvercast.5 mph80%30.17 "Hg10 mi
9:53 AM58 °FOvercast.No wind87%30.19 "Hg8 mi
8:53 AM54 °FOvercast.3 mph93%30.19 "Hg8 mi
7:53 AM48 °FFog.No wind96%30.20 "Hg6 mi
6:53 AM48 °FFog.5 mph96%30.18 "Hg5 mi
Weather by CustomWeather, © 2014

See weather overviewHow to use our weather pages